Regional Weather Roundup
Issued by NWS

Home | Current Version | Previous Version | Graphics & Text | Print | Product List | Glossary On
Versions: 1 2 3 4 5 6 7 8 9 10 11 12 13 14 15 16 17 18 19 20 21 22 23 24 25 26 27 28 29 30 31 32 33 34 35 36 37 38 39 40 41 42 43 44 45 46 47 48 49 50
000
ASUS45 KABQ 180810
RWRNM
NEW MEXICO REGIONAL WEATHER ROUNDUP
NATIONAL WEATHER SERVICE ALBUQUERQUE NM
100 AM MST SUN FEB 18 2018

NOTE: "FAIR" MEANS FEW OR NO CLOUDS BELOW 12,000 FEET AGL WITH NO
       SIGNIFICANT WEATHER OR OBSTRUCTIONS TO VISION.

      THIS PRODUCT IS RELEASED AS TWO VERSIONS.  ONE VERSION NEAR
      THE TOP OF THE HOUR CONTAINING PRELIMINARY DATA FROM ALBUQUERQUE
      AND OTHER STATIONS.  A FINAL VERSION WITH ADDITIONAL DATA IS
      ISSUED ABOUT 10 MINUTES AFTER THE HOUR.

NMZ501-503-504-510>518-180900-
NORTHWEST PLATEAU/NORTHCENTRAL MOUNTAINS

CITY           SKY/WX    TMP DP  RH WIND       PRES   REMARKS
FARMINGTON     FAIR      28  12  51 NE8       30.04F WCI  20
LOS ALAMOS     FAIR      39  12  33 SW6       30.10F WCI  35
SANTA FE       FAIR      33  24  69 E3        30.09F
TAOS           FAIR      29  20  69 E6        30.11F WCI  23
ANGEL FIRE     FAIR      28  17  64 S7        30.11F WCI  20

$$
NMZ402-403-502-505>509-180900-
WESTCENTRAL MOUNTAINS/SOUTHWEST MOUNTAINS

CITY           SKY/WX    TMP DP  RH WIND       PRES   REMARKS
GALLUP         FAIR      29  25  85 CALM      30.10F
GRANTS         FAIR      29  21  71 S7        30.12F WCI  22
SILVER CITY    MOCLDY    40  39  95 N3        30.14F

$$
NMZ407-409-411-412-180900-
SOUTHERN DESERTS

CITY           SKY/WX    TMP DP  RH WIND       PRES   REMARKS
DEMING         FAIR      47  45  93 NW5       30.11F
LAS CRUCES     FAIR      46  46 100 CALM      30.12F
ALAMOGORDO     FAIR      41  37  87 CALM      30.12F
T OR C           N/A     46  42  86 CALM      30.11F

$$
NMZ519>523-180900-
CENTRAL VALLEYS/CENTRAL HIGHLANDS

CITY           SKY/WX    TMP DP  RH WIND       PRES   REMARKS
ALBUQUERQUE    MOCLDY    39  30  70 E7        30.09F WCI  34
MORIARTY ARPT  FAIR      26  24  94 CALM      30.11F
CLINES CORNERS FAIR      34  26  72 W12       30.11F WCI  25
BELEN          FAIR      41  35  79 S10       30.09F
SOCORRO        FAIR      42  37  84 SE8       30.10F

$$
NMZ524>526-539-540-180900-
SOUTHCENTRAL MOUNTAINS

CITY           SKY/WX    TMP DP  RH WIND       PRES   REMARKS
RUIDOSO        NOT AVBL

$$
NMZ527>531-180900-
NORTHEAST HIGHLANDS/NORTHEAST PLAINS

CITY           SKY/WX    TMP DP  RH WIND       PRES   REMARKS
LAS VEGAS      FAIR      36  18  48 S20       30.03F WCI  25
RATON          FAIR      32  21  64 CALM      29.99F
CLAYTON        FAIR      37  26  64 SW23      29.97F WCI  26

$$
NMZ532>537-180900-
EASTCENTRAL PLAINS

CITY           SKY/WX    TMP DP  RH WIND       PRES   REMARKS
SANTA ROSA     FAIR      34  31  88 S7        30.07F WCI  27
TUCUMCARI      FAIR      41  27  57 SW15      30.04F
CANNON AFB     FAIR      35  35 100 S3        30.11F
CLOVIS AIRPORT NOT AVBL

$$
NMZ028-029-538-180900-
SOUTHEAST PLAINS

CITY           SKY/WX    TMP DP  RH WIND       PRES   REMARKS
ROSWELL        FAIR      44  34  67 S5        30.09F
ARTESIA        FAIR      43  41  93 S10       30.11F
CARLSBAD       FAIR      46  36  68 SW3       30.10F
HOBBS          FAIR      39  25  56 CALM      30.13F


$$




USA.gov is the U.S. government's official web portal to all federal, state and local government web resources and services.